TimeWET,TemperatureF,Dew PointF,Humidity,Sea Level PressureIn,VisibilityMPH,Wind Direction,Wind SpeedMPH,Gust SpeedMPH,PrecipitationIn,Events,Conditions,WindDirDegrees,DateUTC
12:00 AM,82,61,39,29.92,6,East,5.8,,,,Scattered Clouds,100,2013-08-07 00:00:00
12:00 AM,82.4,60.8,48,30.01,6.2,East,5.8,-,N/A,,Partly Cloudy,100,2013-08-07 00:00:00
3:00 AM,76,61,51,29.89,6,SW,6.9,,,,Scattered Clouds,230,2013-08-07 03:00:00
6:00 AM,74,63,60,29.90,6,Calm,Calm,,,,Scattered Clouds,,2013-08-07 06:00:00
6:00 AM,73.4,60.8,65,29.95,6.2,Calm,Calm,-,N/A,,Partly Cloudy,0,2013-08-07 06:00:00
6:30 AM,73.4,62.6,69,29.98,6.2,Calm,Calm,-,N/A,,Partly Cloudy,0,2013-08-07 06:30:00
7:00 AM,75.2,60.8,61,29.98,6.2,Variable,1.2,-,N/A,,Partly Cloudy,0,2013-08-07 07:00:00
7:30 AM,75.2,60.8,61,29.98,6.2,WSW,1.2,-,N/A,,Partly Cloudy,240,2013-08-07 07:30:00
8:00 AM,77.0,60.8,57,29.98,6.2,WSW,3.5,-,N/A,,Partly Cloudy,240,2013-08-07 08:00:00
8:30 AM,80.6,60.8,51,29.98,6.2,Variable,1.2,-,N/A,,Partly Cloudy,0,2013-08-07 08:30:00
9:00 AM,83,60,36,29.91,6,NW,2.3,,,,,320,2013-08-07 09:00:00
9:00 AM,82.4,60.8,48,29.98,-9999.0,Variable,2.3,-,N/A,,Clear,0,2013-08-07 09:00:00
9:30 AM,86.0,60.8,43,29.98,-9999.0,Calm,Calm,-,N/A,,Clear,0,2013-08-07 09:30:00
10:00 AM,87.8,59.0,38,30.01,-9999.0,Variable,2.3,-,N/A,,Clear,0,2013-08-07 10:00:00
10:30 AM,89.6,59.0,36,29.98,-9999.0,Variable,2.3,-,N/A,,Clear,0,2013-08-07 10:30:00
11:00 AM,93.2,59.0,32,29.98,-9999.0,Variable,2.3,-,N/A,,Clear,0,2013-08-07 11:00:00
11:30 AM,95.0,57.2,28,29.98,-9999.0,NW,4.6,-,N/A,,Clear,310,2013-08-07 11:30:00
12:00 PM,97,57,18,29.86,6,NW,4.6,,,,Scattered Clouds,320,2013-08-07 12:00:00
12:00 PM,96.8,57.2,27,29.98,6.2,Variable,4.6,-,N/A,,Partly Cloudy,0,2013-08-07 12:00:00
12:30 PM,96.8,57.2,27,29.98,6.2,Variable,4.6,-,N/A,,Partly Cloudy,0,2013-08-07 12:30:00
1:00 PM,100.4,53.6,21,29.98,6.2,North,8.1,-,N/A,,Partly Cloudy,350,2013-08-07 13:00:00
1:30 PM,102.2,51.8,18,29.95,6.2,NNW,6.9,-,N/A,,Partly Cloudy,330,2013-08-07 13:30:00
2:00 PM,104.0,50.0,16,29.95,6.2,Variable,4.6,-,N/A,,Partly Cloudy,0,2013-08-07 14:00:00
2:30 PM,104.0,53.6,19,29.95,6.2,NNW,9.2,-,N/A,,Partly Cloudy,340,2013-08-07 14:30:00
3:00 PM,104,52,10,29.80,6,North,9.2,,,,Scattered Clouds,0,2013-08-07 15:00:00
3:00 PM,104.0,53.6,19,29.95,6.2,North,10.4,-,N/A,,Partly Cloudy,350,2013-08-07 15:00:00
3:30 PM,104.0,51.8,17,29.95,6.2,NNW,8.1,-,N/A,,Partly Cloudy,340,2013-08-07 15:30:00
4:00 PM,104.0,51.8,17,29.95,6.2,Variable,5.8,-,N/A,,Scattered Clouds,0,2013-08-07 16:00:00
4:30 PM,104.0,50.0,16,29.95,6.2,NW,10.4,-,N/A,,Scattered Clouds,320,2013-08-07 16:30:00
5:00 PM,104.0,51.8,17,29.95,6.2,NNW,9.2,-,N/A,,Scattered Clouds,330,2013-08-07 17:00:00
5:30 PM,102.2,51.8,18,29.95,6.2,NW,9.2,-,N/A,,Partly Cloudy,310,2013-08-07 17:30:00
6:00 PM,101,51,11,29.81,6,NNW,11.5,,,,Partly Cloudy,340,2013-08-07 18:00:00
6:00 PM,100.4,50.0,18,29.95,6.2,NNW,10.4,-,N/A,,Partly Cloudy,340,2013-08-07 18:00:00
6:30 PM,98.6,51.8,21,29.95,6.2,NNW,11.5,-,N/A,,Partly Cloudy,340,2013-08-07 18:30:00
7:00 PM,96.8,53.6,23,29.95,6.2,North,12.7,-,N/A,,Partly Cloudy,350,2013-08-07 19:00:00
7:30 PM,95.0,55.4,26,29.98,6.2,North,11.5,-,N/A,,Partly Cloudy,360,2013-08-07 19:30:00
8:00 PM,93.2,55.4,28,30.01,6.2,NNE,11.5,-,N/A,,Scattered Clouds,20,2013-08-07 20:00:00
8:30 PM,91.4,55.4,29,30.01,6.2,North,10.4,-,N/A,,Scattered Clouds,360,2013-08-07 20:30:00
9:00 PM,88,57,25,29.91,6,North,8.1,,,,Partly Cloudy,350,2013-08-07 21:00:00
9:00 PM,87.8,57.2,35,30.01,6.2,North,8.1,-,N/A,,Scattered Clouds,350,2013-08-07 21:00:00
9:30 PM,86.0,59.0,40,30.01,6.2,NNW,6.9,-,N/A,,Scattered Clouds,340,2013-08-07 21:30:00
10:00 PM,86.0,59.0,40,30.04,6.2,Variable,2.3,-,N/A,,Scattered Clouds,0,2013-08-07 22:00:00
10:30 PM,84.2,59.0,42,30.04,6.2,East,6.9,-,N/A,,Scattered Clouds,100,2013-08-07 22:30:00
11:00 PM,82.4,59.0,45,30.04,6.2,NNE,3.5,-,N/A,,Scattered Clouds,30,2013-08-07 23:00:00
11:30 PM,82.4,60.8,48,30.01,6.2,NNE,2.3,-,N/A,,Scattered Clouds,30,2013-08-07 23:30:00